Greenville, AL

11:05 AM CST on February 12, 2016 (GMT -0600)
Greenville Municipal

Weather History for KPRN - February, 2012

Change the Weather History Date:

Friday, February 3, 2012

  Actual Average Record
Temperature  
Mean Temperature 58 °F -  
Max Temperature 63 °F 59 °F 82 °F (1957)
Min Temperature 53 °F 37 °F 11 °F (1951)
Degree Days  
Heating Degree Days 7    
Growing Degree Days 8 (Base 50)    
Moisture  
Dew Point 50 °F    
Average Humidity 73    
Maximum Humidity 84    
Minimum Humidity 56    
Precipitation  
Precipitation 0.03 in - - ()
Sea Level Pressure  
Sea Level Pressure 30.22 in    
Wind  
Wind Speed 6 mph (East)    
Max Wind Speed 10 mph    
Max Gust Speed -    
Visibility 10 miles    
Events Rain , Hail    
Averages and records for this station are not official NWS values.
T = Trace of Precipitation, MM = Missing Value Source: NWS Daily Summary

Daily Weather History Graph

Daily Weather History Graph

Search for Another Location

Airport or City:

Trip Planner

Search our weather history database for the weather conditions in past years. The results will help you decide how hot, cold, wet, or windy it might be!

Date:

Astronomy

Feb. 03, 2012 Rise Set
Actual Time 6:38 AM CST 5:22 PM CST
Civil Twilight 6:13 AM CST 5:47 PM CST
Nautical Twilight 5:44 AM CST 6:16 PM CST
Astronomical Twilight 5:15 AM CST 6:45 PM CST
Moon 1:30 PM CST (2/3) 3:06 AM CST (2/3)
Length of Visible Light 11h 34m
Length of Day
10h 43m
Waxing Gibbous, 82% of the Moon is Illuminated
Feb 3
Waxing Gibbous
Feb 7
Full
Feb 14
Last Quarter
Feb 21
New
Feb 29
First Quarter

Hourly Weather History & Observations

Time (CST) Temp. Dew Point Humidity Pressure Visibility Wind Dir Wind Speed Gust Speed Precip Events Conditions
12:56 AM 57.9 °F 48.0 °F 70% 30.21 in 10.0 mi NE 3.5 mph - N/A   Clear
1:56 AM 57.0 °F 46.9 °F 69% 30.20 in 10.0 mi East 3.5 mph - N/A   Clear
2:56 AM 55.0 °F 46.0 °F 72% 30.21 in 10.0 mi ENE 4.6 mph - N/A   Clear
3:56 AM 55.0 °F 44.1 °F 67% 30.21 in 10.0 mi ENE 5.8 mph - N/A   Clear
4:56 AM 54.0 °F 42.1 °F 64% 30.22 in 10.0 mi NE 3.5 mph - N/A   Clear
5:56 AM 53.1 °F 42.1 °F 66% 30.23 in 10.0 mi East 5.8 mph - N/A   Clear
6:56 AM 54.0 °F 42.1 °F 64% 30.24 in 10.0 mi SE 3.5 mph - N/A   Clear
7:56 AM 55.9 °F 43.0 °F 62% 30.24 in 10.0 mi East 9.2 mph - N/A   Clear
8:56 AM 59.0 °F 45.0 °F 60% 30.25 in 10.0 mi ESE 10.4 mph - N/A   Clear
9:56 AM 62.1 °F 46.0 °F 56% 30.26 in 10.0 mi ESE 10.4 mph - N/A   Clear
10:56 AM 60.1 °F 50.0 °F 69% 30.26 in 10.0 mi East 5.8 mph - 0.00 in Rain Light Rain
11:56 AM 62.1 °F 51.1 °F 67% 30.24 in 10.0 mi East 9.2 mph - 0.00 in   Clear
12:56 PM 63.0 °F 51.1 °F 65% 30.22 in 10.0 mi East 5.8 mph - N/A   Clear
1:56 PM 63.0 °F 53.1 °F 70% 30.21 in 10.0 mi East 5.8 mph - 0.00 in Rain Light Rain
2:56 PM 62.1 °F 55.9 °F 80% 30.20 in 10.0 mi East 6.9 mph - 0.01 in Rain Light Rain
3:56 PM 63.0 °F 55.0 °F 75% 30.20 in 10.0 mi East 6.9 mph - 0.00 in   Clear
4:56 PM 61.0 °F 55.0 °F 81% 30.22 in 9.0 mi East 5.8 mph - 0.01 in Rain Light Rain
5:05 PM 60.1 °F 55.0 °F 83% 30.22 in 10.0 mi East 8.1 mph - 0.00 in Rain Light Rain
5:22 PM 60.1 °F 55.0 °F 83% 30.23 in 10.0 mi East 10.4 mph - 0.01 in Rain Light Rain
5:56 PM 60.1 °F 54.0 °F 80% 30.23 in 10.0 mi ESE 9.2 mph - 0.01 in Rain Light Rain
6:56 PM 59.0 °F 53.1 °F 81% 30.23 in 10.0 mi ESE 9.2 mph - 0.00 in Rain Light Rain
7:56 PM 59.0 °F 53.1 °F 81% 30.24 in 10.0 mi ESE 5.8 mph - 0.00 in   Clear
8:30 PM - - N/A% - - North - - N/A Hail Hail
8:56 PM 59.0 °F 53.1 °F 81% 30.22 in 10.0 mi ESE 5.8 mph - 0.00 in   Clear
9:56 PM 57.9 °F 53.1 °F 84% 30.20 in 10.0 mi ESE 3.5 mph - N/A   Clear
10:56 PM 57.9 °F 53.1 °F 84% 30.19 in 10.0 mi East 3.5 mph - N/A   Partly Cloudy
11:56 PM 57.9 °F 53.1 °F 84% 30.17 in 10.0 mi ESE 3.5 mph - N/A   Partly Cloudy